Location: Berryville
(37.4570°N, 89.2879°W)
Time: 03:51:55
(UTC+00:00)

Daily predictions for brighter satellites

Satellite Brightness Start Highest point End
(mag) Time Altitude Azimuth Time Altitude Azimuth Time Altitude Azimuth
Resurs 1-3 4.5 01:34:57 10° SE 01:38:51 32° ENE 01:42:46 10° N
Cosmos 1758 Rocket 3.7 01:36:29 10° S 01:40:46 78° W 01:45:06 10° N
Cosmos 2298 Rocket 4.2 01:35:49 10° N 01:41:05 58° ENE 01:46:19 10° SSE
Cosmos 1125 Rocket 4.0 01:37:26 10° N 01:42:33 45° ENE 01:47:37 10° SE
NOSS 3-2 (A) 4.3 01:35:36 10° NNW 01:43:28 86° WSW 01:52:14 10° SSE
deb Kosmos-1763 3.9 01:40:35 10° S 01:44:04 73° ESE 01:47:34 10° NNE
Okean-O 4.5 01:44:49 10° SSW 01:48:45 31° W 01:52:43 10° NW
Cosmos 1869 3.3 01:48:16 10° N 01:52:06 57° E 01:55:52 10° SSE
COSMOS 2406 3.4 01:48:03 10° S 01:53:27 48° ESE 01:58:54 10° NE
Cosmos 2058 3.8 01:50:28 10° SSE 01:54:06 30° E 01:57:46 10° NNE
Cosmos 1825 2.4 01:51:49 10° SSE 01:55:23 46° E 01:59:00 10° NNE
NOSS 3-4 (A) 3.4 01:50:40 10° SW 01:56:25 83° WNW 02:02:32 10° NNE
Meteor 1-27 4.4 01:50:41 10° N 01:56:27 88° W 02:02:17 10° S
NOSS 3-4 (C) 3.4 01:50:46 10° SSW 01:56:32 84° WNW 02:02:38 10° NNE
USA 306 3.1 01:52:47 10° NW 01:57:02 63° NE 02:00:51 12° ESE
SAR-Lupe-1 4.2 01:54:25 10° N 01:58:00 76° WNW 02:01:33 10° SSW
SAR-Lupe-4 3.6 01:54:50 10° NNE 01:58:26 88° WNW 02:02:00 10° SSW
OBJECT-B 1.5 01:56:58 10° S 02:00:05 53° W 02:03:14 10° NNW
SL-19 R/B 4.2 01:58:15 10° S 02:01:23 68° WSW 02:04:58 10° NNW
Cosmos 405 Rocket 3.5 01:58:19 10° SSW 02:02:06 56° W 02:06:00 10° N
SJ-6B 3.0 01:59:01 10° S 02:02:45 68° W 02:06:28 10° NNW
Atlas Centaur 2 3.0 02:01:43 10° SSW 02:03:37 13° SSE 02:04:35 12° SE
ATLAS 2AS CENTAUR R/B 3.0 01:57:23 10° SSW 02:05:07 62° ESE 02:12:49 10° NE
USA 32 4.0 01:59:57 10° N 02:05:10 69° E 02:10:22 10° SSE
Cosmos 1656 3.8 02:00:55 10° NNW 02:06:32 63° ENE 02:11:34 12° SE
Centaur D-1AR AC-39 3.8 02:04:50 10° SW 02:06:54 12° SSW 02:08:30 10° S
Cosmos 1980 Rocket 3.9 02:04:41 10° NNE 02:08:24 18° NE 02:12:06 10° E
Cosmos 1437 Rocket 2.7 02:06:31 10° N 02:10:21 71° E 02:14:11 10° SSE
NOSS 3-2 (C) 4.2 02:02:40 10° NNW 02:10:32 88° ENE 02:18:50 12° SSE
Resurs 01 Rocket 2.2 02:08:50 13° SE 02:12:23 42° ENE 02:16:35 10° N
Cosmos 1408 3.9 02:12:42 10° SSW 02:16:11 42° W 02:19:40 10° N
Cosmos 1437 3.2 02:15:38 10° N 02:18:12 33° ENE 02:19:12 24° ESE
NOSS 2 (A) 4.3 02:17:29 10° NNW 02:19:58 50° NE 02:20:51 30° ESE
RESURS DK-1 3.1 02:17:57 10° SSE 02:21:32 30° ESE 02:25:12 10° NE
Cosmos-2242 4.2 02:18:02 10° NNW 02:22:04 41° W 02:26:03 10° SSW
OAO 3 Copernicus 4.4 02:17:46 10° WSW 02:22:40 55° SSE 02:26:48 14° E
Cosmos 2098 Rocket 3.7 02:22:42 18° E 02:22:42 18° E 02:24:50 10° NE
ATLAS 3B R/B 4.3 02:21:41 10° N 02:27:17 24° NE 02:32:46 11° E
USA 267 3.6 02:22:48 10° ENE 02:28:49 38° SE 02:34:48 10° SSW
CENTAUR R/B 3.6 02:21:02 10° NW 02:29:23 64° WSW 02:37:50 11° SSE
Cosmos 1633 3.3 02:29:08 25° SE 02:30:19 32° E 02:33:34 10° NNE
SPOT 1/Viking Rocket 4.1 02:28:26 20° SE 02:31:33 41° ENE 02:36:24 10° N
MetOp-B 4.5 02:28:46 19° SE 02:32:18 49° ENE 02:37:28 10° N
Cosmos 44 Rocket 3.4 02:29:21 10° SSW 02:34:29 86° ESE 02:39:45 10° NNE
Meteor 2-2 Rocket 4.2 02:29:49 10° N 02:35:39 76° E 02:40:10 17° SSE
Cosmos 1634 Rocket 4.5 02:29:53 10° NNW 02:36:04 61° W 02:42:10 10° S
ARIANE 5 R/B 4.1 02:38:33 20° E 02:39:58 23° ENE 02:43:30 10° NNE
ERS-2 3.4 02:37:22 10° N 02:40:49 41° WNW 02:44:14 10° SW
Ariane Rocket 3.5 02:37:36 10° S 02:42:35 58° W 02:47:36 10° NNW
SPOT 5 4.2 02:44:08 18° E 02:45:07 20° ENE 02:48:15 10° NNE
ATLAS 2A CENTAUR R/B 4.3 02:30:35 10° WSW 02:46:37 36° S 02:49:13 25° SE
Cosmos 2180 Rocket 4.4 02:40:37 10° N 02:46:48 77° E 02:51:12 20° SSE
SEDSat Delta rocket 3.5 02:45:53 10° SW 02:49:30 32° S 02:49:48 32° SSE
CZ-2C R/B 3.6 02:46:07 10° NNE 02:50:40 69° ESE 02:53:38 21° S
OAO 2 Rocket 3.3 02:46:27 10° W 02:51:24 60° S 02:53:27 33° ESE
Cosmos 1242 Rocket 3.3 02:48:13 10° NNW 02:51:42 48° W 02:53:50 20° SSW
CARTOSAT-1 4.3 02:51:42 31° ESE 02:52:51 36° ENE 02:56:48 10° N
Cosmos 2221 2.4 02:49:46 10° N 02:54:04 89° ENE 02:56:12 30° S
USA 307 3.7 02:52:03 10° WNW 02:56:04 41° SW 02:57:40 28° S
Cosmos 371 Rocket 4.2 02:59:48 10° N 03:04:05 31° ENE 03:05:07 29° E
ERBS 3.8 03:02:40 10° NNW 03:05:23 24° NE 03:05:39 24° NE
Terra 3.1 03:04:43 24° E 03:05:31 25° ENE 03:09:22 10° NNE
Cosmos 1697 Rocket 2.7 03:01:05 10° NNW 03:06:46 81° WSW 03:09:29 32° SSE
IGS 5A 4.5 03:04:15 19° SSW 03:06:50 41° W 03:10:47 10° NNW
GRACE-FO 1 4.4 03:03:44 10° N 03:07:21 72° E 03:07:42 65° SE
GRACE-FO 2 4.4 03:04:11 10° N 03:07:48 73° E 03:08:09 66° SE
Hubble Space Telescope 2.5 03:05:23 10° SW 03:07:15 19° SSW 03:07:15 19° SSW
Cosmos 2082 Rocket 2.4 03:04:43 10° SSW 03:10:19 71° WNW 03:15:58 10° NNE
Cosmos 1606 2.6 03:06:40 10° N 03:10:26 81° W 03:11:14 53° S
SPOT 3 Rocket 4.0 03:09:29 23° S 03:12:37 59° W 03:17:47 10° NNW
USA 305 4.4 03:09:10 10° WNW 03:12:38 25° SW 03:13:42 23° SSW
USA 308 4.2 03:09:10 10° WNW 03:12:49 28° SW 03:13:51 25° SSW
Cosmos 1833 Rocket 4.5 03:09:14 10° WSW 03:14:14 32° WNW 03:19:15 10° N
Cosmos 2278 4.1 03:09:15 10° N 03:14:42 47° ENE 03:16:22 37° ESE
Meteor 2-15 4.5 03:09:36 10° N 03:15:37 61° E 03:17:44 39° SE
BREEZE-M R/B 3.4 03:11:01 10° SW 03:17:23 42° SSE 03:17:23 42° SSE
Cosmos 2195 Rocket 4.5 03:16:45 37° SSE 03:19:03 59° E 03:25:03 10° NNE
Cosmos 1782 4.4 03:20:43 10° NNE 03:23:15 23° ENE 03:23:15 23° ENE
Cosmos 2151 2.8 03:23:49 63° S 03:24:28 87° E 03:28:44 10° N
Meteor 2-15 Rocket 4.4 03:25:24 10° N 03:31:26 64° E 03:32:59 48° SE
Centaur D AC-29 4.2 03:25:13 10° W 03:32:00 15° SW 03:35:12 11° SSW
Cosmos 1092 Rocket 3.9 03:29:20 37° S 03:32:01 81° E 03:38:19 10° N
GP-B 2.9 03:30:17 10° N 03:34:43 75° E 03:34:52 74° ESE
Meteor 2-3 Rocket 3.6 03:36:27 46° S 03:38:13 85° E 03:43:55 10° N
Cosmos 332 Rocket 4.4 03:34:52 10° N 03:39:30 41° ENE 03:39:38 41° ENE
Cosmos 1680 Rocket 4.3 03:40:32 35° ENE 03:40:32 35° ENE 03:44:27 10° NE
ERS-1 Rocket 2.8 03:40:52 66° SSE 03:41:36 85° E 03:46:39 10° NNW
Cosmos 2369 4.0 03:36:12 10° NNW 03:41:44 58° WSW 03:43:19 43° SSW
Spot 2 Rocket 3.7 03:41:46 47° SSW 03:43:03 63° WSW 03:48:08 10° NNW
Cosmos 1151 Rocket 4.2 03:41:32 10° NNE 03:44:42 32° NE 03:44:42 32° NE
Resurs 01 Rocket 4.1 03:46:24 10° SW 03:49:03 16° W 03:51:42 10° NW
Okean 3 Rocket 4.4 03:50:13 41° NE 03:50:13 41° NE 03:53:31 10° NNE
OAO 1 Rocket 4.4 03:45:05 10° W 03:50:12 68° SSW 03:50:12 68° SSW
Cosmos 2026 Rocket 3.9 03:49:08 46° S 03:51:16 89° W 03:57:37 10° N
BREEZE-M DEB (TANK) 3.6 03:48:11 10° NW 03:51:59 59° NE 03:55:45 32° ESE
BREEZE M DEB (TANK) 3.6 03:48:50 10° WSW 03:52:10 78° NNW 04:10:50 10° ENE
Cosmos 1980 Rocket 2.3 03:47:18 10° NNW 03:52:53 65° WSW 03:53:52 55° SSW
Cosmos 158 Rocket 4.5 03:58:13 36° SW 04:00:02 56° WNW 04:05:10 10° N
Cosmos 2322 Rocket 3.4 03:55:34 10° N 04:00:27 29° ENE 04:00:59 29° ENE
H-2A R/B 4.2 03:56:52 10° NNE 03:59:53 46° NNE 03:59:53 46° NNE
Cosmos 1271 Rocket 3.6 04:00:12 10° N 04:03:10 49° NNW 04:03:10 49° NNW
ISS -1.1 04:08:47 10° NNW 04:10:34 17° N 04:10:34 17° N
USA 267 3.8 04:05:32 10° NE 04:11:54 57° NW 04:18:16 10° WSW
ARIANE 5 R/B 4.1 04:16:06 30° W 04:16:14 30° W 04:20:11 10° NW
Meteor 2-21 4.3 04:16:06 75° SE 04:16:31 80° E 04:22:42 10° N
Cosmos 2292 Rocket 4.1 04:16:18 78° SW 04:16:40 84° W 04:23:29 10° N
ATLAS 3B R/B 2.7 04:11:32 10° NW 04:18:44 80° WSW 04:20:00 63° S
SPOT 5 4.0 04:23:22 31° W 04:23:22 31° W 04:26:51 10° NW
SL-16 R/B 2.4 04:20:06 10° NNW 04:25:32 62° NE 04:25:32 62° NE
Cosmos 304 Rocket 4.3 04:22:54 10° NNW 04:26:50 56° NW 04:26:50 56° NW
Cosmos 1655 Rocket 4.0 04:32:56 66° E 04:32:56 66° E 04:39:02 10° NNE
Cosmos 1553 Rocket 3.8 04:27:16 10° N 04:33:21 87° W 04:33:26 86° SW
Cosmos 2266 Rocket 4.1 04:37:31 60° ENE 04:37:31 60° ENE 04:43:02 10° NNE
COSMOS 2455 4.5 04:44:29 22° ENE 04:44:29 22° ENE 04:47:01 10° NE
USA 234 3.9 04:41:00 39° E 04:42:53 49° NE 04:49:09 10° NW
Terra 3.3 04:43:36 30° W 04:43:36 30° W 04:47:18 10° NW
Meteor 2-16 Rocket 4.4 04:50:10 81° N 04:50:10 81° N 04:55:56 10° N
ALOS 2 4.5 04:56:16 25° NNE 04:56:16 25° NNE 04:58:33 10° N
S3M 4.0 04:54:24 10° N 05:00:35 79° WNW 05:00:35 79° WNW
Cosmos 2056 Rocket 4.1 04:56:27 10° NNW 05:00:38 54° N 05:00:38 54° N
Cosmos 2333 Rocket 3.5 05:04:52 10° N 05:09:38 30° NE 05:09:38 30° NE
Cosmos 2360 Rocket 2.7 05:10:13 10° NNW 05:14:45 56° N 05:14:45 56° N
Cosmos 2322 Rocket 3.6 05:39:24 10° NW 05:42:47 29° WNW 05:42:47 29° WNW
Cosmos 2285 Rocket 4.2 05:52:47 10° NNW 05:58:13 66° N 05:58:13 66° N
COSMOS 2428 3.4 06:01:46 10° NNW 06:06:19 50° NNE 06:06:19 50° NNE
SL-16 R/B 4.5 06:05:55 10° WNW 06:07:23 14° WNW 06:07:23 14° WNW
Cosmos 2219 Rocket 2.9 06:07:13 10° NNW 06:11:15 49° NNW 06:11:15 49° NNW
USA 234 4.3 06:28:20 32° W 06:28:20 32° W 06:32:06 10° WNW
COSMOS 2455 3.8 06:27:35 39° NW 06:27:36 39° NW 06:33:13 10° NNE
Cosmos 2219 4.3 06:34:37 36° ENE 06:34:37 36° ENE 06:38:33 10° NE
Cosmos 1709 Rocket 4.4 06:37:29 57° ENE 06:37:29 57° ENE 06:43:08 10° NNE
NOSS 0 Rocket 4.2 06:32:41 10° NNW 06:38:37 61° NE 06:38:37 61° NE
Cosmos 1745 Rocket 4.2 06:45:31 61° NW 06:45:31 61° NW 06:50:57 10° N
ATLAS 5 CENTAUR R/B 2.8 06:47:59 10° NNW 06:53:43 57° NE 06:54:21 55° E
Cosmos 2333 Rocket 3.8 06:48:58 10° NW 06:51:36 24° WNW 06:51:36 24° WNW
Meteor 1-11 Rocket 4.2 06:56:39 53° NE 06:56:39 53° NE 07:01:09 10° NNE
Lacrosse 5 3.2 06:57:57 34° ENE 06:57:57 34° ENE 07:00:54 10° NE
SL-16 R/B 3.7 07:00:09 30° E 07:01:56 37° ENE 07:07:30 10° N
Cosmos 1980 4.1 06:57:24 10° NNW 07:02:27 61° NNE 07:02:27 61° NNE
Resurs 1-4 Rocket 3.1 06:59:13 10° NNE 07:03:26 40° ENE 07:03:26 40° ENE
Cosmos 2297 Rocket 2.6 07:18:52 58° NNW 07:18:52 58° NNW 07:23:51 10° NNE
Cosmos 2074 Rocket 4.4 07:23:13 49° ESE 07:23:50 51° E 07:29:50 10° NNE
NPP 4.1 07:19:14 10° NNE 07:24:07 52° E 07:24:07 52° E
Cosmos 2237 Rocket 2.4 07:21:35 10° NNW 07:26:22 64° NNW 07:26:22 64° NNW
ASTEX 1 4.1 07:29:44 49° NNW 07:29:44 49° NNW 07:33:21 10° N
Cosmos 2227 Rocket 2.4 07:29:32 65° NNW 07:29:32 65° NNW 07:34:41 10° NNE
ADEOS Rocket 3.7 07:29:11 35° ESE 07:30:44 43° ENE 07:35:54 10° N
Meteor 1-13 Rocket 4.4 07:25:01 10° NNW 07:30:08 66° NW 07:30:08 66° NW
USA 229 DEB 4.1 07:23:50 10° NW 07:30:33 55° W 07:30:33 55° W
USA 229 4.1 07:23:55 10° NW 07:30:42 56° W 07:30:42 56° W
CZ-2D R/B 2.1 07:37:13 10° NNE 07:42:21 79° NNW 07:42:21 79° NNW
Cosmos 2181 Rocket 3.8 07:36:44 10° N 07:43:05 79° W 07:43:19 78° WSW
ADEOS II 2.7 07:39:26 10° NNE 07:44:30 47° E 07:44:45 46° ESE
Cosmos 614 Rocket 4.0 07:50:06 71° E 07:50:06 71° E 07:55:04 10° NNE
SL-16 R/B 2.9 07:45:39 10° NNW 07:51:09 51° ENE 07:53:47 29° SE
NOSS 3-1 (A) 4.5 07:44:04 10° NW 07:51:23 45° WSW 07:51:23 45° WSW
Meteor 1-23 Rocket 4.1 07:47:57 10° N 07:53:41 87° W 07:53:54 83° SSW
Cosmos 2263 Rocket 3.3 07:54:29 30° SE 07:55:34 33° ESE 08:00:34 10° NE
Cosmos 1975 4.0 07:57:17 39° ENE 07:57:17 39° ENE 08:00:39 10° NNE
ATLAS CENTAUR R/B 3.8 07:57:40 12° E 07:57:40 12° E 07:58:46 10° E
SL-19 R/B 4.5 07:54:47 10° NNE 08:00:57 80° ESE 08:02:07 61° S
Cosmos 2221 Rocket 3.9 07:57:04 10° N 08:01:25 65° ENE 08:01:25 65° ENE
Cosmos 407 Rocket 4.3 08:01:06 40° SE 08:01:53 42° ESE 08:06:50 10° NNE
Cosmos 1461 3.7 08:05:09 49° E 08:05:09 49° E 08:09:10 10° NE
Cosmos 1992 Rocket 3.9 08:01:01 10° NNW 08:05:56 73° WNW 08:05:56 73° WNW
Cosmos 2344 3.8 08:04:50 41° S 08:07:12 57° ESE 08:14:29 10° NE
UNK 4.3 08:14:59 47° WNW 08:14:59 47° WNW 08:18:42 10° NNW
Helios 1B rocket 3.2 08:11:46 10° N 08:14:58 44° NW 08:14:58 44° NW
Cosmos 1238 Rocket 4.0 08:18:43 32° NE 08:18:43 32° NE 08:20:46 10° NNE
Meteor 2-12 Rocket 4.4 08:16:51 56° WSW 08:17:43 62° W 08:23:48 10° N
Cosmos 1674 Rocket 4.1 08:13:29 10° N 08:17:49 54° E 08:18:39 46° ESE
Cosmos 1842 3.6 08:19:09 10° N 08:22:21 59° N 08:22:21 59° N
Nadezhda 3 Rocket 4.1 08:17:09 10° N 08:23:32 79° E 08:26:34 33° SSE
Cosmos 2327 Rocket 4.4 08:25:50 51° SSW 08:27:33 79° W 08:33:43 10° N
BREEZE-M DEB (TANK) 4.1 08:30:27 37° NE 08:30:27 37° NE 08:31:54 10° NE
IDEFIX/ARIANE 42P 2.5 08:29:41 10° NNE 08:34:53 78° ESE 08:36:26 46° S
CBERS-1 4.0 08:29:51 10° NNE 08:35:00 81° ESE 08:36:25 49° S
Cosmos 2251 Rocket 4.3 08:36:33 34° W 08:37:13 36° WNW 08:42:04 10° N
Cosmos 2082 4.5 08:36:22 33° W 08:37:34 37° WNW 08:42:51 10° N
ATLAS 5 CENTAUR R/B 3.9 08:33:18 10° WNW 08:35:47 20° W 08:35:47 20° W
Cosmos 1378 Rocket 3.5 08:34:37 10° N 08:39:00 82° E 08:39:54 56° SSE
Lacrosse 5 3.6 08:37:07 19° WNW 08:39:12 24° NW 08:43:17 10° NNE
Cosmos 1908 Rocket 3.5 08:42:20 57° S 08:43:10 81° E 08:47:31 10° N
Resurs 1-4 Rocket 3.6 08:39:46 10° NNW 08:43:44 22° WNW 08:44:30 21° WNW
USA 215 3.8 08:38:37 10° NE 08:44:52 47° SE 08:47:58 28° S
Cosmos 1356 Rocket 3.1 08:44:46 73° WSW 08:45:00 77° W 08:49:01 10° N
SL-16 R/B 3.2 08:45:15 32° WSW 08:45:29 32° W 08:50:57 10° NW
Cosmos 1733 Rocket 4.3 08:50:26 28° WNW 08:50:26 28° WNW 08:54:08 10° NNW
Cosmos 2154 Rocket 4.4 08:50:40 36° WSW 08:52:28 46° W 08:58:24 10° N
BREEZE-M DEB (TANK) 4.4 08:45:45 23° WSW 08:52:58 62° NW 08:56:50 10° NE
SWARM A 4.3 08:53:26 67° NW 08:53:26 67° NW 08:56:27 10° N
Cosmos 1190 Rocket 3.9 08:51:32 42° SSW 08:53:24 86° WNW 08:58:43 10° NNE
DELTA 2 DEB (DPAF) 4.0 08:53:13 47° SSW 08:54:23 69° WSW 08:58:49 10° NNW
SL-8 R/B 4.1 08:53:11 37° W 08:54:50 57° NNW 08:59:35 10° NE
Cosmos 1140 Rocket 3.6 08:54:56 42° SW 08:56:33 63° WNW 09:01:46 10° NNE
Meteor 1-21 4.3 08:56:59 10° NNW 09:02:41 62° W 09:05:54 27° SSW
ASTRO E2 3.7 09:05:37 30° SSE 09:05:37 30° SSE 09:08:55 10° ESE
CZ-4C R/B 3.3 09:04:26 26° SSE 09:06:41 89° E 09:10:56 10° NNW
MSX 3.8 09:01:17 10° N 09:07:01 76° WNW 09:10:10 28° SSW
CZ-4B R/B 3.8 09:02:39 10° NNE 09:07:26 58° ESE 09:10:42 19° S
Cosmos 1954 Rocket 4.1 09:04:41 28° S 09:07:33 78° ESE 09:12:53 10° NNE
Okean 2 3.7 09:04:29 10° NNW 09:08:28 45° W 09:09:08 41° WSW
Cosmos 44 4.2 09:04:04 10° NNW 09:09:09 51° NE 09:13:53 10° SE
Cosmos 1844 Rocket 4.4 09:04:38 10° SSE 09:09:16 27° ESE 09:13:55 10° NE
ARIANE 5 R/B 2.6 09:06:57 10° NNE 09:12:09 80° ESE 09:15:40 21° S
Meteor 1-28 Rocket 4.4 09:16:25 25° W 09:16:25 25° W 09:19:03 10° NW
ADEOS Rocket 4.0 09:16:08 22° W 09:16:24 22° W 09:20:36 10° NW
Cosmos 1603 4.1 09:12:41 10° NNW 09:18:17 66° ENE 09:23:52 10° SSE
Milstar 3 3.8 09:15:44 21° SSW 09:18:32 28° SSE 09:24:08 10° ESE
CZ-2D R/B 3.6 09:15:50 10° NNE 09:19:49 66° E 09:22:37 19° S
CZ-2D R/B 4.3 09:21:05 10° NW 09:21:49 10° WNW 09:22:32 10° WNW
Cosmos 1959 Rocket 4.4 09:17:53 17° S 09:22:47 86° W 09:28:58 10° N
Cosmos 864 Rocket 4.5 09:17:39 16° S 09:22:47 88° WNW 09:29:06 10° N
ADEOS II 3.6 09:20:02 10° NNW 09:23:48 20° WNW 09:25:41 17° W
Spot 4 Rocket 4.5 09:19:20 10° NNE 09:24:26 60° ESE 09:29:30 10° S
Cosmos 1782 Rocket 3.6 09:23:31 28° SSW 09:25:41 61° W 09:30:00 10° N
CZ-2C R/B 4.3 09:23:08 10° NNE 09:26:31 33° E 09:29:56 10° SSE
Sich 1 Rocket 4.1 09:24:30 11° S 09:28:38 59° E 09:32:59 10° NNE
Cosmos 1805 3.2 09:26:33 19° S 09:29:15 81° E 09:33:09 10° N
SL-8 Rocket 4.0 09:24:57 20° SSW 09:29:16 61° W 09:35:22 10° N
Cosmos 2366 rocket 4.0 09:26:46 16° SSW 09:32:01 72° W 09:38:23 10° N
IRS-1C 4.4 09:27:45 10° N 09:32:56 52° WNW 09:36:26 20° SW
CZ-3 R/B 4.4 09:15:06 18° SW 09:34:44 37° S 09:44:05 10° ESE
SL-16 R/B 3.5 09:30:51 10° NW 09:34:48 20° W 09:35:34 19° WSW
ATLAS CENTAUR R/B 1.8 09:33:49 25° WSW 09:35:28 40° NW 09:39:10 10° NNE
Cosmos 676 Rocket 4.2 09:32:40 22° SW 09:36:06 59° WNW 09:41:23 10° N
KORONAS-FOTON 3.8 09:33:04 10° NNW 09:36:58 68° W 09:40:44 11° S
Cosmos 2263 Rocket 3.2 09:36:11 19° WSW 09:39:25 32° WNW 09:44:30 10° N
Cosmos 1707 4.1 09:41:25 10° NW 09:44:18 21° W 09:45:07 19° WSW
SL-14 R/B 4.4 09:41:28 10° N 09:45:14 46° E 09:49:00 10° SSE
PAYLOAD A 4.1 09:40:15 10° NNE 09:45:42 86° WNW 09:51:00 10° SSW
ALOS 2.8 09:45:42 10° NNE 09:50:20 61° E 09:54:56 10° S
GEOS 3 Rocket 3.6 09:45:03 10° SSE 09:50:24 85° WSW 09:55:46 10° NW
CZ-4C R/B 3.1 09:43:05 10° NW 09:50:40 64° WSW 09:59:09 10° SSE
Cosmos 1741 Rocket 4.2 09:50:17 10° S 09:55:29 73° ESE 10:00:45 10° NNE
Cosmos 1733 3.4 09:52:52 14° SSW 09:56:03 52° W 09:59:49 10° N
Cosmos 2218 Rocket 4.5 09:52:26 13° SSW 09:57:54 43° WNW 10:03:54 10° N
SL-08 R/B 3.6 09:53:14 10° S 09:58:00 49° W 10:02:49 10° NNW
Cosmos 1766 3.2 09:54:25 10° SSW 09:58:15 68° W 10:02:09 10° N
Meteor 2-20 Rocket 4.4 09:52:44 10° NNW 09:58:52 73° W 10:05:00 10° S
Cosmos 1470 4.4 09:55:49 10° SSE 09:59:25 36° E 10:03:01 10° NNE
Cosmos 1763 Rocket 3.9 09:56:03 10° NNW 10:01:22 71° ENE 10:06:37 10° SSE
USA 281 4.1 09:55:54 10° SE 10:02:16 56° ENE 10:08:39 10° NNW
Cosmos 1300 Rocket 3.8 10:01:56 10° SSW 10:06:07 50° W 10:10:21 10° N
Cosmos 1727 Rocket 4.0 10:00:53 10° N 10:07:05 72° W 10:13:19 10° S
Meteor 1-15 Rocket 4.4 10:01:37 10° SSW 10:07:28 61° W 10:13:18 10° N
USA 290 2.4 10:06:53 10° NNW 10:10:08 77° ENE 10:13:22 10° SSE
Cosmos 1975 Rocket 3.9 10:09:55 10° NNW 10:13:45 30° W 10:17:32 10° SSW
Cosmos 1484 Rocket 3.2 10:10:08 10° NNE 10:14:05 69° E 10:18:02 10° S
Cosmos 1844 3.8 10:09:05 10° SSW 10:14:37 82° ESE 10:20:12 10° NNE
Cosmos 1943 3.6 10:09:20 10° NW 10:14:39 41° WSW 10:19:55 10° S
Cosmos 1340 4.0 10:13:16 10° NW 10:16:11 22° W 10:19:04 10° SW
CZ-2C R/B 2.8 10:13:31 10° N 10:17:48 41° WNW 10:22:07 10° SW
Cosmos 1400 Rocket 4.0 10:16:14 10° SW 10:19:24 24° WNW 10:22:35 10° NNW
SL-24 R/B - RUBIN 2 3.6 10:14:43 10° NW 10:19:32 70° WSW 10:23:53 10° SSE
Cosmos 1626 2.9 10:16:57 10° NNW 10:20:14 31° W 10:23:29 10° SSW
CZ-3B R/B 3.9 10:12:27 10° WSW 10:20:34 29° S 10:24:56 10° SE
Cosmos 1674 4.5 10:24:09 10° NW 10:26:27 15° W 10:28:44 10° SW
Cosmos 1315 Rocket 2.8 10:22:47 10° SSW 10:26:53 74° W 10:30:57 10° N
Okean 1 Rocket 3.5 10:23:02 10° S 10:27:22 68° E 10:31:47 10° NNE
USA 215 3.8 10:21:36 10° NE 10:27:49 49° NW 10:34:02 10° WSW
SL-19 R/B 4.3 10:25:08 10° S 10:30:40 68° WSW 10:36:29 10° NNW
